CMA CGM La Boussole — A8FZ6 — position and weather

sailwx.info

Track history (hours):
 
Tides and Currents Weather Stations Pressure Air Temp Water Temp Dewpoint Dewpoint Depression Visibility Wind Speed Wind Dir Waves Ship Positions

CMA CGM La Boussole

Last reported at 2014-Oct-25 18:32 UTC. Time now 2014-Oct-25 19:07 UTC.
Position N 37°35' W 000°28'.

Length 210.1 m; beam 30.2 m; draft 11.5 m.

Type: Ship (hazmat cat D). MMSI: 636090821.

Date/timePositionNaut miles runAvg speedWind from/ knotsBaromVisibWave heightAir tempDewpointWater temp
2014-Oct-25 18:32N 37°35' W 000°28'1313.3
2014-Oct-25 17:33N 37°26' W 000°40'1413.3
2014-Oct-25 16:29N 37°17' W 000°53'21714.6
2014-Oct-25 01:33N 36°05' W 005°09'1313.0
2014-Oct-25 00:33N 36°07' W 005°25'0 0.1
2014-Oct-24 23:31N 36°08' W 005°25'0 0.0
2014-Oct-24 22:33N 36°08' W 005°25'0 0.0
2014-Oct-24 21:33N 36°08' W 005°25'0 0.0
2014-Oct-24 20:33N 36°08' W 005°25'0 0.0
2014-Oct-24 19:32N 36°08' W 005°25'0 0.0
2014-Oct-24 18:32N 36°08' W 005°25'0 0.0
2014-Oct-24 17:33N 36°08' W 005°25'3 2.6
2014-Oct-24 16:33N 36°05' W 005°24'10316.1
2014-Oct-24 10:10N 35°35' W 007°25'3017.4
2014-Oct-24 08:26N 35°27' W 008°01'5017.5
2014-Oct-24 05:33N 35°12' W 008°60'30217.8
2014-Oct-23 12:33N 33°45' W 014°51'2017.7
2014-Oct-23 11:25N 33°38' W 015°13'1517.7
2014-Oct-23 10:33N 33°34' W 015°31'15217.9
2014-Oct-23 02:04N 32°43' W 018°22'4618.2
2014-Oct-22 23:33N 32°26' W 019°12'  
Track history (hours):
 
Tides and Currents Weather Stations Pressure Air Temp Water Temp Dewpoint Dewpoint Depression Visibility Wind Speed Wind Dir Waves Ship Positions

CMA CGM La Boussole

Last reported at 2014-Oct-25 18:32 UTC. Time now 2014-Oct-25 19:07 UTC.
Position N 37°35' W 000°28'.

Length 210.1 m; beam 30.2 m; draft 11.5 m.

Type: Ship (hazmat cat D). MMSI: 636090821.

Date/timePositionNaut miles runAvg speedWind from/ knotsBaromVisibWave heightAir tempDewpointWater temp
2014-Oct-25 18:32N 37°35' W 000°28'1313.3
2014-Oct-25 17:33N 37°26' W 000°40'1413.3
2014-Oct-25 16:29N 37°17' W 000°53'21714.6
2014-Oct-25 01:33N 36°05' W 005°09'1313.0
2014-Oct-25 00:33N 36°07' W 005°25'0 0.1
2014-Oct-24 23:31N 36°08' W 005°25'0 0.0
2014-Oct-24 22:33N 36°08' W 005°25'0 0.0
2014-Oct-24 21:33N 36°08' W 005°25'0 0.0
2014-Oct-24 20:33N 36°08' W 005°25'0 0.0
2014-Oct-24 19:32N 36°08' W 005°25'0 0.0
2014-Oct-24 18:32N 36°08' W 005°25'0 0.0
2014-Oct-24 17:33N 36°08' W 005°25'3 2.6
2014-Oct-24 16:33N 36°05' W 005°24'10316.1
2014-Oct-24 10:10N 35°35' W 007°25'3017.4
2014-Oct-24 08:26N 35°27' W 008°01'5017.5
2014-Oct-24 05:33N 35°12' W 008°60'30217.8
2014-Oct-23 12:33N 33°45' W 014°51'2017.7
2014-Oct-23 11:25N 33°38' W 015°13'1517.7
2014-Oct-23 10:33N 33°34' W 015°31'15217.9
2014-Oct-23 02:04N 32°43' W 018°22'4618.2
2014-Oct-22 23:33N 32°26' W 019°12'  

Dump ship's entire track history